QPF
0.00 0.00 0.00 0.00 0.02 0.02 0.00 0.00 0.00 0.00 0.00 0.00 0.00 0.00 0.00 0.00 0.02 0.04 0.02 0.00 0.00 0.00 0.00 0.00 0.01 0.01 0.01 0.01 0.02 0.02 0.03 0.03 0.03 0.02 0.01 0.02 0.02 0.02 0.03 0.03 0.04 0.04 0.03 0.04 0.04 0.04 0.05 0.04 0.03
0.00 0.00 0.00 0.01 0.01 0.00 0.00 0.00 0.00 0.00 0.00 0.00 0.00 0.00 0.00 0.00 0.00 0.01 0.01 0.00 0.00 0.00 0.00 0.00 0.01 0.02 0.02 0.01 0.01 0.02 0.02 0.02 0.02 0.02 0.01 0.02 0.02 0.03 0.03 0.03 0.03 0.04 0.04 0.06 0.05 0.04 0.04 0.04 0.03
0.00 0.00 0.00 0.01 0.00 0.00 0.00 0.00 0.00 0.00 0.00 0.00 0.00 0.00 0.00 0.00 0.00 0.00 0.00 0.00 0.00 0.00 0.00 0.00 0.01 0.01 0.02 0.01 0.01 0.01 0.02 0.02 0.02 0.02 0.03 0.02 0.02 0.02 0.03 0.03 0.04 0.05 0.10 0.08 0.06 0.04 0.03 0.03 0.02
0.00 0.00 0.00 0.00 0.00 0.00 0.00 0.00 0.00 0.00 0.00 0.00 0.00 0.00 0.00 0.00 0.00 0.00 0.00 0.00 0.00 0.00 0.00 0.00 0.00 0.01 0.01 0.01 0.01 0.01 0.02 0.02 0.03 0.03 0.02 0.02 0.02 0.03 0.04 0.04 0.04 0.04 0.06 0.06 0.06 0.04 0.03 0.03 0.03
0.00 0.00 0.01 0.00 0.00 0.00 0.00 0.00 0.00 0.00 0.00 0.00 0.00 0.00 0.00 0.00 0.00 0.00 0.00 0.00 0.00 0.00 0.00 0.00 0.00 0.01 0.01 0.02 0.02 0.02 0.02 0.02 0.02 0.02 0.02 0.02 0.02 0.03 0.06 0.05 0.03 0.02 0.03 0.04 0.04 0.04 0.04 0.04 0.03
0.00 0.00 0.01 0.00 0.00 0.00 0.00 0.00 0.00 0.00 0.00 0.00 0.00 0.00 0.00 0.00 0.00 0.00 0.00 0.00 0.00 0.00 0.00 0.00 0.00 0.00 0.00 0.02 0.03 0.03 0.01 0.01 0.02 0.02 0.02 0.02 0.03 0.03 0.04 0.04 0.03 0.03 0.03 0.04 0.04 0.03 0.03 0.03 0.03
0.00 0.01 0.01 0.00 0.00 0.00 0.00 0.00 0.00 0.00 0.00 0.00 0.00 0.01 0.00 0.00 0.00 0.00 0.00 0.00 0.00 0.00 0.00 0.00 0.00 0.00 0.00 0.01 0.02 0.03 0.01 0.01 0.01 0.02 0.02 0.02 0.02 0.02 0.03 0.04 0.05 0.03 0.03 0.03 0.04 0.04 0.03 0.03 0.02
0.00 0.00 0.01 0.00 0.00 0.00 0.00 0.00 0.00 0.00 0.00 0.00 0.00 0.00 0.00 0.00 0.00 0.00 0.01 0.00 0.00 0.00 0.00 0.00 0.00 0.00 0.00 0.00 0.01 0.02 0.01 0.01 0.01 0.02 0.01 0.02 0.02 0.02 0.03 0.04 0.06 0.06 0.05 0.03 0.02 0.02 0.03 0.03 0.01
0.00 0.00 0.00 0.00 0.00 0.00 0.00 0.00 0.00 0.00 0.01 0.01 0.00 0.00 0.00 0.00 0.00 0.00 0.01 0.02 0.01 0.01 0.00 0.00 0.00 0.00 0.00 0.01 0.01 0.01 0.01 0.01 0.02 0.02 0.03 0.06 0.11 0.07 0.05 0.04 0.03 0.05 0.05 0.03 0.04 0.03 0.02 0.02 0.01
0.00 0.00 0.00 0.00 0.00 0.00 0.00 0.00 0.00 0.02 0.02 0.01 0.00 0.00 0.00 0.00 0.00 0.00 0.01 0.02 0.01 0.01 0.00 0.00 0.01 0.00 0.01 0.01 0.02 0.05 0.04 0.03 0.07 0.06 0.05 0.12 0.15 0.15 0.08 0.04 0.03 0.03 0.03 0.02 0.03 0.03 0.02 0.03 0.03
0.00 0.00 0.00 0.00 0.00 0.00 0.00 0.00 0.00 0.01 0.02 0.01 0.00 0.00 0.00 0.00 0.00 0.00 0.00 0.01 0.01 0.01 0.00 0.00 0.01 0.02 0.05 0.04 0.03 0.05 0.07 0.06 0.08 0.07 0.05 0.10 0.09 0.10 0.06 0.05 0.04 0.04 0.05 0.05 0.03 0.03 0.05 0.06 0.06
0.00 0.00 0.00 0.00 0.00 0.00 0.00 0.00 0.00 0.00 0.00 0.00 0.00 0.00 0.00 0.00 0.00 0.00 0.00 0.01 0.03 0.02 0.02 0.01 0.02 0.03 0.05 0.04 0.04 0.05 0.07 0.06 0.07 0.07 0.04 0.06 0.08 0.09 0.08 0.09 0.07 0.07 0.09 0.09 0.06 0.07 0.06 0.06 0.04
0.00 0.00 0.00 0.00 0.00 0.00 0.00 0.00 0.00 0.00 0.00 0.00 0.00 0.00 0.00 0.00 0.00 0.00 0.00 0.01 0.03 0.03 0.04 0.04 0.06 0.02 0.03 0.04 0.04 0.04 0.09 0.07 0.06 0.06 0.04 0.04 0.06 0.07 0.07 0.08 0.08 0.06 0.04 0.04 0.06 0.04 0.04 0.04 0.03
0.00 0.00 0.00 0.00 0.00 0.00 0.01 0.01 0.00 0.00 0.00 0.00 0.00 0.00 0.00 0.00 0.00 0.00 0.01 0.02 0.04 0.04 0.04 0.06 0.08 0.03 0.02 0.02 0.03 0.04 0.04 0.05 0.06 0.06 0.04 0.03 0.04 0.05 0.05 0.05 0.07 0.07 0.05 0.04 0.04 0.03 0.04 0.04 0.03
0.00 0.00 0.00 0.00 0.00 0.00 0.02 0.02 0.01 0.00 0.00 0.00 0.00 0.00 0.00 0.00 0.00 0.00 0.01 0.03 0.04 0.04 0.03 0.07 0.06 0.05 0.04 0.03 0.03 0.05 0.04 0.04 0.04 0.06 0.05 0.03 0.04 0.05 0.05 0.05 0.05 0.05 0.04 0.03 0.03 0.02 0.03 0.04 0.05
0.00 0.00 0.00 0.00 0.00 0.00 0.02 0.02 0.01 0.00 0.00 0.00 0.00 0.00 0.00 0.00 0.00 0.01 0.01 0.04 0.06 0.06 0.05 0.06 0.06 0.05 0.05 0.04 0.05 0.05 0.04 0.05 0.05 0.05 0.06 0.04 0.05 0.04 0.05 0.04 0.04 0.03 0.02 0.02 0.03 0.02 0.02 0.04 0.05
0.00 0.00 0.00 0.00 0.00 0.00 0.01 0.01 0.00 0.00 0.00 0.00 0.00 0.00 0.00 0.00 0.00 0.00 0.01 0.03 0.05 0.05 0.05 0.06 0.06 0.05 0.05 0.05 0.05 0.05 0.05 0.06 0.05 0.05 0.07 0.07 0.05 0.03 0.03 0.05 0.04 0.02 0.03 0.02 0.03 0.03 0.03 0.06 0.06
0.00 0.00 0.00 0.00 0.00 0.00 0.00 0.00 0.00 0.00 0.00 0.00 0.00 0.00 0.00 0.00 0.00 0.00 0.01 0.03 0.04 0.06 0.04 0.05 0.05 0.06 0.06 0.07 0.06 0.04 0.04 0.06 0.05 0.05 0.07 0.06 0.05 0.03 0.05 0.05 0.04 0.03 0.04 0.04 0.05 0.06 0.06 0.05 0.05
0.00 0.00 0.00 0.00 0.00 0.00 0.00 0.00 0.00 0.00 0.00 0.00 0.00 0.00 0.00 0.00 0.00 0.01 0.01 0.02 0.03 0.04 0.03 0.04 0.05 0.06 0.08 0.10 0.08 0.05 0.04 0.06 0.05 0.04 0.04 0.06 0.06 0.06 0.06 0.07 0.08 0.05 0.06 0.04 0.03 0.05 0.07 0.06 0.04
0.00 0.00 0.00 0.00 0.00 0.00 0.00 0.01 0.01 0.01 0.00 0.00 0.00 0.00 0.00 0.00 0.00 0.02 0.02 0.01 0.01 0.02 0.03 0.04 0.05 0.05 0.07 0.08 0.09 0.06 0.06 0.05 0.05 0.04 0.05 0.05 0.07 0.10 0.09 0.06 0.07 0.06 0.07 0.07 0.06 0.07 0.09 0.09 0.07
0.00 0.00 0.00 0.00 0.00 0.00 0.00 0.01 0.04 0.03 0.01 0.00 0.00 0.00 0.00 0.00 0.00 0.01 0.02 0.02 0.01 0.02 0.04 0.05 0.05 0.06 0.06 0.08 0.08 0.07 0.06 0.07 0.07 0.05 0.06 0.04 0.05 0.06 0.07 0.06 0.06 0.07 0.06 0.09 0.08 0.07 0.08 0.09 0.08
0.00 0.00 0.00 0.00 0.00 0.00 0.00 0.00 0.01 0.02 0.01 0.00 0.01 0.00 0.01 0.01 0.00 0.01 0.02 0.02 0.02 0.02 0.03 0.05 0.06 0.06 0.06 0.07 0.08 0.08 0.07 0.09 0.11 0.09 0.08 0.06 0.04 0.04 0.05 0.06 0.08 0.08 0.09 0.11 0.07 0.07 0.08 0.10 0.08
0.00 0.00 0.00 0.00 0.00 0.00 0.00 0.00 0.00 0.01 0.01 0.02 0.05 0.01 0.00 0.01 0.01 0.00 0.01 0.01 0.01 0.02 0.03 0.04 0.05 0.05 0.05 0.06 0.06 0.08 0.09 0.11 0.13 0.10 0.11 0.10 0.08 0.06 0.04 0.06 0.09 0.09 0.09 0.10 0.09 0.14 0.10 0.08 0.07
0.00 0.00 0.00 0.00 0.00 0.00 0.00 0.00 0.00 0.00 0.01 0.02 0.02 0.00 0.00 0.00 0.00 0.00 0.00 0.00 0.01 0.01 0.01 0.02 0.04 0.04 0.04 0.04 0.05 0.06 0.09 0.13 0.12 0.12 0.12 0.10 0.10 0.09 0.08 0.08 0.10 0.10 0.10 0.10 0.10 0.10 0.09 0.08 0.10
0.00 0.00 0.00 0.00 0.00 0.00 0.00 0.00 0.00 0.00 0.00 0.00 0.00 0.00 0.00 0.00 0.00 0.00 0.00 0.00 0.01 0.01 0.01 0.02 0.03 0.03 0.04 0.05 0.06 0.06 0.09 0.13 0.14 0.14 0.12 0.10 0.09 0.09 0.10 0.11 0.12 0.10 0.12 0.11 0.12 0.13 0.12 0.14 0.14
0.00 0.00 0.00 0.00 0.00 0.00 0.00 0.00 0.00 0.00 0.00 0.00 0.00 0.00 0.00 0.00 0.01 0.01 0.00 0.00 0.01 0.01 0.01 0.02 0.03 0.03 0.04 0.05 0.06 0.07 0.09 0.11 0.14 0.15 0.12 0.11 0.10 0.10 0.11 0.11 0.10 0.09 0.10 0.11 0.14 0.14 0.14 0.15 0.15
0.00 0.00 0.00 0.00 0.00 0.00 0.00 0.00 0.00 0.00 0.00 0.00 0.00 0.00 0.00 0.01 0.02 0.00 0.00 0.00 0.01 0.01 0.01 0.02 0.03 0.04 0.04 0.04 0.06 0.07 0.08 0.10 0.13 0.15 0.13 0.10 0.10 0.11 0.11 0.08 0.07 0.08 0.08 0.10 0.13 0.13 0.12 0.15 0.13
0.00 0.00 0.00 0.00 0.00 0.00 0.00 0.00 0.02 0.03 0.01 0.00 0.00 0.00 0.00 0.00 0.00 0.00 0.00 0.00 0.00 0.00 0.01 0.01 0.03 0.03 0.03 0.04 0.05 0.05 0.07 0.09 0.10 0.10 0.11 0.10 0.08 0.10 0.09 0.07 0.07 0.08 0.07 0.08 0.11 0.11 0.10 0.11 0.11
0.00 0.00 0.00 0.00 0.00 0.00 0.00 0.00 0.02 0.05 0.02 0.00 0.00 0.00 0.00 0.00 0.01 0.01 0.00 0.00 0.00 0.00 0.00 0.00 0.01 0.02 0.03 0.04 0.05 0.05 0.05 0.06 0.07 0.07 0.08 0.09 0.09 0.09 0.09 0.08 0.07 0.06 0.08 0.07 0.09 0.10 0.10 0.10 0.11
0.00 0.00 0.00 0.00 0.00 0.00 0.00 0.00 0.01 0.02 0.00 0.00 0.00 0.00 0.00 0.00 0.01 0.02 0.00 0.01 0.00 0.00 0.00 0.00 0.00 0.02 0.03 0.03 0.03 0.04 0.04 0.05 0.06 0.06 0.08 0.09 0.08 0.07 0.08 0.08 0.07 0.06 0.08 0.09 0.09 0.10 0.11 0.09 0.09
MSLP
1006.26 1006.93 1007.73 1008.52 1009.17 1009.60 1009.77 1009.70 1009.47 1009.19 1008.95 1008.83 1008.87 1009.05 1009.33 1009.65 1009.97 1010.24 1010.49 1010.72 1010.98 1011.32 1011.73 1012.21 1012.71 1013.18 1013.56 1013.82 1013.94 1013.96 1013.91 1013.86 1013.87 1013.95 1014.11 1014.34 1014.59 1014.81 1014.99 1015.09 1015.12 1015.12 1015.10 1015.10 1015.13 1015.21 1015.33 1015.48 1015.65
1006.64 1007.42 1008.26 1009.02 1009.58 1009.87 1009.87 1009.64 1009.27 1008.87 1008.55 1008.37 1008.36 1008.51 1008.78 1009.10 1009.43 1009.74 1010.05 1010.38 1010.76 1011.22 1011.75 1012.33 1012.90 1013.42 1013.81 1014.07 1014.18 1014.18 1014.13 1014.08 1014.09 1014.17 1014.32 1014.53 1014.74 1014.92 1015.04 1015.11 1015.12 1015.11 1015.11 1015.15 1015.22 1015.34 1015.48 1015.63 1015.78
1007.12 1007.97 1008.81 1009.49 1009.92 1010.04 1009.89 1009.52 1009.03 1008.55 1008.18 1007.98 1007.96 1008.09 1008.33 1008.64 1008.96 1009.28 1009.63 1010.01 1010.48 1011.03 1011.66 1012.33 1012.98 1013.55 1013.98 1014.26 1014.39 1014.41 1014.37 1014.33 1014.35 1014.42 1014.56 1014.73 1014.89 1015.02 1015.09 1015.12 1015.13 1015.14 1015.18 1015.27 1015.39 1015.55 1015.70 1015.85 1015.97
1007.62 1008.49 1009.28 1009.86 1010.15 1010.14 1009.85 1009.39 1008.85 1008.35 1007.99 1007.80 1007.78 1007.91 1008.12 1008.38 1008.66 1008.95 1009.28 1009.68 1010.19 1010.80 1011.51 1012.25 1012.98 1013.60 1014.09 1014.41 1014.58 1014.63 1014.62 1014.61 1014.63 1014.70 1014.82 1014.95 1015.06 1015.14 1015.19 1015.20 1015.22 1015.27 1015.36 1015.51 1015.68 1015.87 1016.03 1016.15 1016.23
1008.06 1008.91 1009.62 1010.08 1010.26 1010.14 1009.78 1009.29 1008.77 1008.33 1008.03 1007.90 1007.91 1008.03 1008.21 1008.40 1008.59 1008.80 1009.07 1009.44 1009.94 1010.58 1011.33 1012.13 1012.91 1013.60 1014.14 1014.51 1014.72 1014.82 1014.85 1014.87 1014.91 1014.99 1015.09 1015.19 1015.27 1015.33 1015.36 1015.38 1015.43 1015.53 1015.68 1015.87 1016.09 1016.29 1016.44 1016.52 1016.54
1008.37 1009.14 1009.74 1010.10 1010.18 1010.01 1009.66 1009.22 1008.81 1008.49 1008.32 1008.28 1008.35 1008.46 1008.59 1008.68 1008.76 1008.85 1009.02 1009.31 1009.77 1010.40 1011.16 1012.00 1012.82 1013.55 1014.14 1014.55 1014.81 1014.96 1015.03 1015.08 1015.15 1015.24 1015.34 1015.44 1015.51 1015.57 1015.61 1015.66 1015.75 1015.90 1016.10 1016.34 1016.58 1016.78 1016.90 1016.92 1016.88
1008.49 1009.14 1009.62 1009.88 1009.90 1009.73 1009.44 1009.14 1008.89 1008.76 1008.75 1008.85 1008.98 1009.11 1009.17 1009.16 1009.11 1009.06 1009.11 1009.30 1009.70 1010.29 1011.04 1011.88 1012.71 1013.47 1014.09 1014.54 1014.83 1015.01 1015.13 1015.21 1015.31 1015.43 1015.55 1015.67 1015.76 1015.84 1015.91 1016.00 1016.14 1016.33 1016.57 1016.83 1017.07 1017.25 1017.32 1017.30 1017.19
1008.42 1008.93 1009.27 1009.43 1009.41 1009.27 1009.10 1008.96 1008.92 1009.01 1009.20 1009.43 1009.66 1009.79 1009.81 1009.71 1009.54 1009.37 1009.30 1009.39 1009.71 1010.25 1010.97 1011.79 1012.62 1013.38 1014.00 1014.46 1014.78 1014.98 1015.13 1015.25 1015.39 1015.54 1015.70 1015.85 1015.99 1016.11 1016.23 1016.36 1016.53 1016.75 1017.01 1017.27 1017.49 1017.64 1017.67 1017.59 1017.44
1008.23 1008.56 1008.75 1008.81 1008.75 1008.66 1008.60 1008.64 1008.81 1009.12 1009.50 1009.89 1010.20 1010.37 1010.37 1010.21 1009.95 1009.69 1009.53 1009.55 1009.80 1010.29 1010.97 1011.75 1012.56 1013.29 1013.90 1014.35 1014.66 1014.88 1015.04 1015.20 1015.37 1015.57 1015.77 1015.98 1016.17 1016.34 1016.50 1016.68 1016.88 1017.11 1017.36 1017.60 1017.80 1017.90 1017.89 1017.78 1017.61
1007.98 1008.13 1008.16 1008.11 1008.01 1007.95 1007.99 1008.17 1008.52 1009.01 1009.56 1010.08 1010.48 1010.70 1010.71 1010.54 1010.26 1009.96 1009.76 1009.74 1009.96 1010.41 1011.05 1011.80 1012.56 1013.25 1013.81 1014.24 1014.53 1014.75 1014.92 1015.09 1015.30 1015.53 1015.79 1016.05 1016.29 1016.51 1016.71 1016.92 1017.13 1017.36 1017.59 1017.81 1017.96 1018.03 1018.00 1017.88 1017.71
1007.78 1007.76 1007.63 1007.46 1007.30 1007.23 1007.32 1007.60 1008.07 1008.68 1009.34 1009.97 1010.46 1010.74 1010.80 1010.67 1010.42 1010.15 1009.97 1009.97 1010.18 1010.62 1011.22 1011.93 1012.63 1013.27 1013.79 1014.17 1014.44 1014.64 1014.80 1014.99 1015.21 1015.48 1015.77 1016.07 1016.36 1016.61 1016.85 1017.07 1017.28 1017.50 1017.70 1017.88 1018.01 1018.06 1018.02 1017.91 1017.77
1007.73 1007.55 1007.28 1006.98 1006.74 1006.63 1006.71 1007.01 1007.53 1008.19 1008.92 1009.60 1010.16 1010.51 1010.66 1010.61 1010.45 1010.27 1010.16 1010.22 1010.46 1010.90 1011.49 1012.15 1012.81 1013.39 1013.85 1014.19 1014.43 1014.60 1014.76 1014.94 1015.17 1015.45 1015.77 1016.09 1016.39 1016.67 1016.92 1017.14 1017.34 1017.54 1017.72 1017.87 1017.98 1018.03 1018.01 1017.94 1017.85
1007.88 1007.58 1007.18 1006.77 1006.44 1006.25 1006.28 1006.54 1007.02 1007.67 1008.39 1009.09 1009.68 1010.11 1010.34 1010.41 1010.38 1010.33 1010.34 1010.48 1010.78 1011.24 1011.82 1012.45 1013.06 1013.59 1014.01 1014.32 1014.53 1014.69 1014.83 1015.00 1015.22 1015.50 1015.80 1016.12 1016.43 1016.71 1016.95 1017.16 1017.35 1017.52 1017.68 1017.82 1017.93 1018.00 1018.02 1018.00 1017.97
1008.23 1007.85 1007.37 1006.88 1006.46 1006.19 1006.12 1006.29 1006.68 1007.24 1007.90 1008.56 1009.16 1009.63 1009.96 1010.15 1010.26 1010.35 1010.49 1010.73 1011.10 1011.59 1012.16 1012.77 1013.35 1013.85 1014.25 1014.54 1014.74 1014.89 1015.03 1015.19 1015.39 1015.64 1015.92 1016.21 1016.50 1016.75 1016.98 1017.17 1017.35 1017.50 1017.65 1017.79 1017.91 1018.01 1018.08 1018.13 1018.16
1008.72 1008.31 1007.79 1007.25 1006.77 1006.43 1006.27 1006.32 1006.58 1007.01 1007.55 1008.13 1008.69 1009.18 1009.57 1009.87 1010.11 1010.34 1010.60 1010.93 1011.36 1011.87 1012.44 1013.04 1013.60 1014.10 1014.50 1014.80 1015.02 1015.19 1015.33 1015.49 1015.66 1015.88 1016.11 1016.36 1016.60 1016.82 1017.02 1017.19 1017.35 1017.50 1017.65 1017.80 1017.95 1018.08 1018.21 1018.31 1018.41
1009.25 1008.85 1008.34 1007.81 1007.32 1006.92 1006.68 1006.61 1006.72 1006.98 1007.37 1007.84 1008.32 1008.79 1009.22 1009.60 1009.94 1010.28 1010.63 1011.04 1011.50 1012.03 1012.60 1013.18 1013.75 1014.26 1014.69 1015.04 1015.31 1015.51 1015.68 1015.84 1016.00 1016.17 1016.35 1016.54 1016.73 1016.91 1017.08 1017.24 1017.38 1017.54 1017.69 1017.86 1018.03 1018.20 1018.37 1018.53 1018.67
1009.72 1009.36 1008.92 1008.44 1007.98 1007.58 1007.28 1007.10 1007.05 1007.15 1007.36 1007.67 1008.05 1008.46 1008.89 1009.31 1009.72 1010.13 1010.55 1011.00 1011.48 1012.01 1012.58 1013.16 1013.73 1014.28 1014.76 1015.18 1015.53 1015.80 1016.01 1016.18 1016.33 1016.46 1016.59 1016.73 1016.86 1017.00 1017.15 1017.29 1017.44 1017.59 1017.76 1017.94 1018.14 1018.34 1018.54 1018.73 1018.91
1010.03 1009.76 1009.42 1009.05 1008.67 1008.31 1007.98 1007.70 1007.51 1007.42 1007.45 1007.59 1007.83 1008.15 1008.54 1008.97 1009.42 1009.87 1010.33 1010.80 1011.30 1011.82 1012.37 1012.95 1013.55 1014.13 1014.69 1015.19 1015.62 1015.97 1016.24 1016.44 1016.59 1016.69 1016.78 1016.87 1016.96 1017.07 1017.19 1017.33 1017.49 1017.66 1017.84 1018.04 1018.25 1018.46 1018.68 1018.89 1019.09
1010.18 1010.01 1009.82 1009.59 1009.32 1009.02 1008.68 1008.33 1008.00 1007.73 1007.56 1007.51 1007.60 1007.82 1008.15 1008.56 1009.02 1009.51 1010.00 1010.49 1010.98 1011.49 1012.03 1012.61 1013.22 1013.85 1014.47 1015.06 1015.58 1016.01 1016.34 1016.58 1016.73 1016.82 1016.87 1016.92 1016.99 1017.07 1017.19 1017.34 1017.52 1017.71 1017.91 1018.12 1018.33 1018.55 1018.77 1018.98 1019.19
1010.19 1010.15 1010.11 1010.05 1009.92 1009.69 1009.36 1008.94 1008.47 1008.02 1007.64 1007.40 1007.33 1007.43 1007.70 1008.09 1008.57 1009.09 1009.61 1010.12 1010.62 1011.12 1011.65 1012.22 1012.84 1013.49 1014.16 1014.81 1015.40 1015.90 1016.29 1016.55 1016.71 1016.80 1016.84 1016.87 1016.91 1017.00 1017.13 1017.30 1017.50 1017.72 1017.94 1018.16 1018.37 1018.58 1018.79 1019.00 1019.20
1010.14 1010.24 1010.38 1010.48 1010.49 1010.34 1010.01 1009.52 1008.91 1008.27 1007.69 1007.25 1007.02 1007.02 1007.23 1007.61 1008.12 1008.68 1009.25 1009.80 1010.32 1010.82 1011.33 1011.89 1012.49 1013.15 1013.83 1014.51 1015.14 1015.67 1016.09 1016.38 1016.55 1016.64 1016.67 1016.69 1016.74 1016.83 1016.98 1017.18 1017.42 1017.66 1017.91 1018.14 1018.35 1018.55 1018.75 1018.94 1019.13
1010.11 1010.37 1010.69 1010.96 1011.09 1011.00 1010.66 1010.09 1009.33 1008.51 1007.73 1007.11 1006.74 1006.63 1006.80 1007.20 1007.75 1008.38 1009.02 1009.62 1010.17 1010.68 1011.18 1011.70 1012.27 1012.89 1013.55 1014.21 1014.84 1015.38 1015.80 1016.10 1016.27 1016.35 1016.39 1016.41 1016.47 1016.59 1016.77 1017.00 1017.27 1017.55 1017.82 1018.06 1018.27 1018.46 1018.63 1018.81 1018.99
1010.18 1010.60 1011.09 1011.51 1011.75 1011.71 1011.34 1010.68 1009.78 1008.78 1007.82 1007.04 1006.54 1006.36 1006.51 1006.93 1007.54 1008.25 1008.97 1009.63 1010.22 1010.74 1011.22 1011.69 1012.20 1012.76 1013.35 1013.97 1014.55 1015.06 1015.47 1015.75 1015.92 1016.00 1016.04 1016.07 1016.15 1016.29 1016.50 1016.77 1017.07 1017.38 1017.66 1017.91 1018.12 1018.29 1018.45 1018.62 1018.79
1010.35 1010.94 1011.58 1012.13 1012.45 1012.43 1012.03 1011.28 1010.26 1009.11 1008.00 1007.09 1006.48 1006.25 1006.39 1006.84 1007.52 1008.31 1009.10 1009.83 1010.46 1010.98 1011.43 1011.85 1012.28 1012.75 1013.26 1013.78 1014.30 1014.76 1015.12 1015.39 1015.54 1015.63 1015.67 1015.72 1015.81 1015.97 1016.20 1016.49 1016.82 1017.15 1017.44 1017.70 1017.90 1018.07 1018.21 1018.35 1018.52
1010.57 1011.31 1012.09 1012.73 1013.11 1013.11 1012.68 1011.86 1010.75 1009.49 1008.27 1007.27 1006.60 1006.33 1006.47 1006.95 1007.68 1008.53 1009.38 1010.16 1010.81 1011.33 1011.74 1012.10 1012.44 1012.81 1013.21 1013.65 1014.08 1014.48 1014.80 1015.04 1015.19 1015.27 1015.32 1015.38 1015.49 1015.66 1015.90 1016.21 1016.54 1016.87 1017.18 1017.43 1017.62 1017.77 1017.90 1018.02 1018.17
1010.76 1011.62 1012.48 1013.20 1013.61 1013.61 1013.17 1012.32 1011.17 1009.86 1008.60 1007.56 1006.86 1006.58 1006.71 1007.21 1007.96 1008.84 1009.73 1010.52 1011.17 1011.67 1012.04 1012.33 1012.59 1012.87 1013.18 1013.53 1013.89 1014.23 1014.51 1014.73 1014.87 1014.96 1015.02 1015.09 1015.21 1015.38 1015.63 1015.93 1016.26 1016.58 1016.87 1017.11 1017.29 1017.42 1017.53 1017.63 1017.76
1010.82 1011.75 1012.65 1013.39 1013.82 1013.83 1013.40 1012.57 1011.43 1010.16 1008.92 1007.90 1007.21 1006.93 1007.07 1007.56 1008.30 1009.17 1010.03 1010.81 1011.43 1011.90 1012.22 1012.46 1012.66 1012.87 1013.11 1013.39 1013.70 1014.00 1014.26 1014.47 1014.62 1014.71 1014.79 1014.87 1014.99 1015.16 1015.40 1015.68 1015.99 1016.29 1016.55 1016.77 1016.93 1017.04 1017.12 1017.21 1017.31
1010.71 1011.62 1012.51 1013.22 1013.63 1013.66 1013.28 1012.51 1011.46 1010.28 1009.14 1008.20 1007.57 1007.32 1007.45 1007.92 1008.61 1009.43 1010.24 1010.96 1011.53 1011.95 1012.24 1012.44 1012.60 1012.77 1012.98 1013.22 1013.50 1013.78 1014.04 1014.25 1014.41 1014.52 1014.61 1014.71 1014.83 1014.99 1015.21 1015.47 1015.75 1016.02 1016.26 1016.45 1016.58 1016.67 1016.73 1016.79 1016.86
1010.42 1011.24 1012.03 1012.67 1013.04 1013.07 1012.75 1012.09 1011.19 1010.17 1009.19 1008.38 1007.85 1007.65 1007.79 1008.21 1008.84 1009.57 1010.29 1010.94 1011.45 1011.83 1012.09 1012.28 1012.43 1012.59 1012.79 1013.03 1013.31 1013.59 1013.85 1014.07 1014.25 1014.38 1014.49 1014.59 1014.71 1014.87 1015.07 1015.31 1015.56 1015.81 1016.02 1016.18 1016.30 1016.37 1016.40 1016.43 1016.48
1010.03 1010.68 1011.31 1011.81 1012.11 1012.14 1011.87 1011.35 1010.63 1009.82 1009.05 1008.41 1008.01 1007.88 1008.03 1008.41 1008.96 1009.59 1010.22 1010.78 1011.24 1011.58 1011.84 1012.03 1012.20 1012.38 1012.60 1012.85 1013.13 1013.42 1013.69 1013.93 1014.11 1014.26 1014.38 1014.50 1014.63 1014.79 1014.98 1015.21 1015.44 1015.67 1015.86 1016.02 1016.12 1016.17 1016.19 1016.20 1016.22
Thickness
5862 5867 5865 5857 5835 5822 5812 5822 5830 5828 5829 5839 5840 5832 5817 5809 5798 5785 5812 5818 5810 5801 5792 5787 5785 5783 5781 5780 5778 5777 5775 5774 5772 5771 5770 5769 5768 5767 5766 5765 5764 5764 5763 5761 5760 5760 5759 5758 5758
5870 5874 5865 5847 5824 5804 5806 5826 5827 5830 5838 5844 5840 5831 5819 5812 5818 5813 5815 5816 5811 5802 5794 5788 5783 5781 5780 5778 5776 5775 5773 5772 5771 5769 5768 5767 5766 5765 5764 5764 5763 5762 5761 5760 5759 5758 5758 5757 5756
5873 5875 5854 5840 5828 5813 5813 5831 5834 5843 5850 5843 5833 5830 5819 5811 5817 5815 5818 5819 5812 5802 5793 5786 5782 5780 5778 5776 5775 5773 5772 5770 5769 5767 5766 5765 5765 5764 5763 5762 5761 5760 5759 5758 5757 5757 5756 5756 5755
5874 5869 5857 5840 5827 5835 5837 5842 5847 5843 5845 5846 5835 5819 5819 5827 5825 5822 5823 5820 5810 5801 5792 5785 5781 5779 5777 5775 5773 5772 5770 5769 5767 5766 5764 5764 5763 5762 5761 5760 5759 5759 5758 5757 5756 5755 5755 5754 5754
5877 5857 5837 5830 5833 5846 5854 5856 5854 5843 5839 5840 5832 5814 5810 5828 5832 5827 5825 5820 5811 5802 5792 5784 5780 5778 5776 5774 5772 5770 5769 5767 5766 5764 5763 5762 5761 5761 5760 5759 5758 5757 5756 5755 5754 5754 5753 5753 5753
5860 5851 5826 5825 5835 5849 5858 5862 5857 5845 5841 5841 5831 5815 5811 5828 5827 5826 5825 5821 5814 5803 5793 5784 5779 5777 5774 5772 5771 5769 5767 5766 5764 5763 5762 5761 5760 5759 5758 5757 5756 5755 5754 5753 5752 5752 5752 5752 5753
5856 5844 5833 5839 5840 5845 5858 5867 5857 5846 5841 5843 5841 5816 5814 5824 5828 5829 5826 5822 5815 5806 5795 5786 5780 5777 5774 5772 5770 5768 5766 5765 5763 5762 5761 5759 5758 5758 5757 5756 5755 5754 5753 5752 5751 5751 5751 5751 5752
5880 5855 5840 5846 5843 5846 5865 5869 5864 5853 5846 5858 5853 5823 5813 5823 5831 5829 5824 5819 5813 5806 5799 5791 5785 5780 5775 5772 5769 5767 5765 5764 5762 5761 5760 5759 5758 5757 5756 5755 5754 5753 5752 5751 5751 5750 5750 5750 5751
5890 5853 5841 5849 5849 5854 5870 5863 5862 5866 5855 5853 5855 5846 5837 5835 5832 5824 5817 5812 5807 5803 5800 5795 5790 5784 5780 5775 5770 5767 5764 5763 5761 5760 5759 5758 5758 5757 5755 5754 5753 5752 5752 5751 5750 5750 5750 5750 5750
5879 5850 5854 5870 5872 5868 5872 5866 5862 5855 5843 5841 5841 5843 5840 5834 5827 5818 5811 5805 5801 5798 5798 5796 5791 5788 5783 5778 5771 5767 5765 5763 5762 5761 5759 5758 5758 5757 5756 5753 5752 5752 5751 5751 5750 5750 5749 5749 5750
5879 5863 5871 5880 5884 5879 5873 5871 5872 5852 5837 5840 5835 5833 5834 5830 5823 5817 5812 5808 5804 5800 5798 5795 5792 5788 5784 5778 5773 5770 5768 5763 5763 5762 5761 5759 5758 5756 5755 5753 5751 5751 5751 5751 5750 5750 5750 5751 5751
5876 5878 5882 5884 5888 5881 5875 5874 5869 5860 5854 5860 5853 5844 5835 5827 5822 5818 5813 5810 5805 5800 5796 5794 5790 5786 5782 5778 5775 5772 5768 5765 5764 5762 5761 5760 5758 5757 5756 5754 5754 5753 5753 5753 5752 5752 5753 5753 5753
5873 5875 5885 5890 5888 5884 5878 5873 5869 5865 5870 5867 5857 5844 5834 5829 5825 5823 5819 5813 5806 5799 5794 5792 5787 5782 5779 5776 5773 5772 5768 5765 5764 5762 5761 5760 5759 5758 5757 5755 5755 5755 5754 5754 5753 5754 5753 5753 5753
5873 5878 5883 5887 5887 5881 5867 5864 5865 5864 5872 5862 5852 5842 5838 5833 5829 5823 5817 5810 5805 5799 5794 5790 5785 5781 5777 5774 5772 5770 5769 5766 5764 5762 5761 5761 5760 5759 5757 5756 5756 5756 5755 5755 5754 5754 5753 5753 5752
5877 5867 5872 5882 5884 5879 5868 5846 5855 5871 5870 5858 5850 5844 5840 5836 5832 5824 5819 5812 5807 5800 5796 5789 5785 5781 5776 5772 5770 5770 5768 5766 5765 5763 5761 5760 5760 5759 5757 5757 5755 5756 5755 5755 5754 5754 5753 5753 5752
5868 5856 5847 5870 5880 5880 5859 5827 5856 5875 5866 5855 5850 5845 5838 5835 5833 5828 5822 5815 5808 5801 5795 5790 5788 5781 5775 5771 5769 5769 5768 5766 5765 5763 5761 5760 5759 5758 5757 5757 5756 5756 5756 5755 5754 5754 5753 5752 5751
5854 5843 5846 5863 5879 5878 5864 5841 5862 5877 5865 5854 5850 5845 5838 5833 5832 5828 5824 5817 5810 5803 5796 5790 5787 5781 5775 5772 5769 5768 5767 5765 5764 5762 5761 5759 5758 5758 5757 5757 5757 5757 5756 5755 5755 5753 5752 5750 5750
5843 5853 5858 5861 5875 5872 5861 5857 5868 5875 5867 5857 5851 5846 5839 5832 5830 5829 5824 5817 5810 5804 5797 5791 5786 5782 5777 5772 5768 5767 5766 5764 5763 5762 5760 5759 5758 5757 5757 5757 5757 5757 5756 5754 5754 5752 5752 5751 5750
5859 5856 5854 5866 5880 5867 5860 5857 5863 5870 5867 5858 5851 5846 5839 5834 5835 5831 5824 5818 5810 5803 5797 5791 5786 5782 5777 5771 5766 5763 5762 5762 5762 5762 5760 5758 5757 5756 5756 5757 5757 5756 5754 5753 5753 5751 5749 5748 5750
5854 5848 5852 5866 5877 5864 5855 5853 5859 5865 5862 5862 5856 5848 5842 5836 5831 5827 5822 5816 5809 5802 5797 5791 5786 5782 5778 5773 5769 5767 5765 5763 5763 5763 5761 5758 5758 5756 5756 5755 5755 5755 5753 5752 5751 5749 5746 5747 5749
5847 5847 5850 5853 5866 5868 5855 5840 5845 5854 5862 5862 5861 5856 5848 5840 5831 5825 5820 5815 5810 5803 5798 5793 5788 5784 5780 5776 5771 5768 5764 5762 5761 5760 5759 5759 5757 5756 5756 5755 5755 5754 5753 5751 5750 5749 5746 5742 5745
5838 5861 5858 5852 5844 5841 5851 5821 5834 5843 5846 5853 5853 5853 5847 5842 5835 5828 5822 5815 5810 5806 5801 5795 5790 5786 5782 5777 5772 5767 5762 5758 5759 5760 5759 5759 5758 5757 5756 5756 5754 5753 5753 5751 5750 5750 5748 5744 5741
5850 5865 5857 5850 5841 5834 5845 5829 5829 5844 5834 5841 5847 5850 5850 5844 5835 5829 5824 5818 5813 5809 5803 5796 5791 5786 5783 5779 5774 5769 5765 5763 5762 5761 5759 5758 5758 5757 5756 5755 5754 5753 5752 5751 5750 5749 5748 5746 5743
5859 5853 5847 5845 5837 5814 5831 5828 5823 5841 5842 5844 5849 5852 5849 5844 5839 5832 5827 5819 5813 5809 5803 5797 5790 5785 5782 5778 5775 5771 5767 5764 5761 5758 5757 5756 5756 5756 5756 5755 5754 5753 5752 5751 5750 5749 5747 5745 5744
5848 5825 5807 5803 5799 5796 5823 5825 5835 5854 5860 5856 5852 5851 5849 5845 5838 5830 5823 5816 5810 5806 5802 5797 5790 5784 5782 5778 5775 5772 5769 5766 5762 5759 5757 5756 5755 5754 5754 5754 5753 5752 5751 5751 5749 5748 5746 5745 5742
5839 5830 5802 5791 5790 5792 5809 5818 5842 5865 5867 5865 5861 5854 5849 5843 5836 5830 5824 5817 5811 5807 5802 5797 5790 5785 5782 5779 5775 5773 5770 5766 5763 5761 5759 5757 5755 5755 5755 5753 5752 5751 5750 5750 5748 5746 5745 5743 5741
5833 5833 5843 5827 5821 5811 5815 5833 5844 5860 5858 5857 5854 5849 5843 5839 5833 5829 5825 5819 5813 5808 5803 5798 5791 5786 5783 5780 5776 5772 5769 5766 5763 5761 5759 5758 5757 5756 5754 5752 5751 5750 5749 5747 5746 5743 5742 5741 5740
5847 5845 5834 5819 5799 5792 5808 5812 5812 5827 5837 5847 5846 5843 5841 5839 5835 5831 5826 5820 5815 5810 5804 5799 5793 5787 5784 5781 5777 5773 5769 5766 5763 5760 5757 5756 5755 5754 5753 5751 5750 5748 5747 5745 5743 5741 5740 5738 5737
5831 5828 5827 5825 5822 5800 5791 5795 5831 5831 5840 5845 5846 5845 5842 5838 5833 5829 5825 5821 5817 5811 5804 5797 5792 5787 5783 5780 5776 5772 5769 5766 5762 5759 5756 5755 5753 5752 5750 5749 5748 5746 5744 5742 5740 5738 5737 5735 5733
5842 5833 5826 5804 5805 5814 5804 5810 5849 5848 5853 5852 5849 5847 5844 5839 5835 5829 5824 5819 5814 5808 5803 5797 5792 5787 5783 5780 5775 5771 5767 5764 5760 5757 5755 5753 5751 5750 5748 5747 5745 5743 5742 5740 5738 5735 5734 5732 5729